STARLINK-34285, 65101

Orbit data source: Space-Track

STARLINK-34285, 65101 is a payload satellite owned by SpaceX/Seattle (US) in LEO that was launched on Mon, 04 Aug 2025 UTC via an FALCON 9 launch vehicle from the Air Force Eastern Test Range (AFETR). Payload-class satellites include a variety of spacecraft equipped with specific instruments for various scientific and technological missions. These include communications satellites like Starlink; space stations such as the ISS; scientific satellites like the Hubble; Earth observation satellites from companies like Planet Labs, Umbra, and HawkEye 360; GPS; miniature CubeSats for education and research; and military/defense satellites.

Loading next visibility...
Identifier
65101, 2025-167Z
Orbit
LEO
Country
Flag of USUS
Related business
Manufacturer
SpaceX/Seattle
Mission
Operational spacecraft
Bus & Motor
STARLINK V2MO, Unknown motor
Mass
575 kg wet, ~530 kg dry
Launch date (UTC)
2025-08-04 (1 month ago)
Launch vehicle
FALCON 9
Launch site
Air Force Eastern Test Range (AFETR)
Object type
Payload
Rocket body
Debris
Shape & HBR
Unknown
Radar Cross Section
Large (>1 m²)

Expand to show TLE details & history
Last TLE update: 10 hours ago

TLE from 10 hours ago
0 STARLINK-34285
1 65101U 25167Z   25243.17513452  .00334733  00000-0  22052-2 0  9994
2 65101  53.1587 194.9867 0002716  33.4895 326.6296 15.74135921  4260
Epoch: 2025-08-31T04:12Z
TLE epoch observation values (Epoch: 2025-08-31T04:12:11.622Z)
Latitude
-0.00003°
Longitude
152.3394°
Altitude
346.483 km
Speed
7.703 km/s
True Right ascension
12h 59m 56s
True Declination
0° 00' 00"
Sunlit
Object was in daylight at epoch
Visualization orbit readout
Latitude
Unknown
Longitude
Unknown
Altitude
Unknown
Speed
Unknown
Apparent Right ascension
Unknown
Apparent Declination
Unknown
Sunlit
N/A
Visualization observer readout
Local Sidereal Time
06:15:16
Azimuth
Unknown
Elevation
Unknown
Doppler factor
Unknown
Orbital elements
Apogee altitude
349.179 km
Perigee altitude
345.526 km
Semi-major axis
6,725.49 km
Eccentricity
0.00027
Inclination
53.1587°
RAAN
194.9867°
Arg. of periapsis
33.4895°
True anomaly
326.61248°
Mean anomaly
326.6296°
Eccentric anomaly
326.62104°
Mean motion
3.93511 °/min
Orbital period
91.48 mins
BSTAR
0.0022052
Loading maneuver chart data...
Computing Atmospheric mass density...
Loading historical data...
Loading historical data...
Loading historical data...
Loading historical data...
Loading historical data...
Loading historical data...
Loading historical data...

Documentation

Showing up to 5 results
|